This demonstration page uses our WeatherBlox Daily Observations layout. Learn more.

Left ArrowRight Arrow

39.92423, -83.80882

Hourly Observations for January 31, 2019

Temp ( °F °C ) Dew Point ( °F °C ) Humidity (%) Winds ( mph kmh ) Pressure ( in mb ) Visibility ( mi km ) Precip ( " mm )
12:56 am 00:56 Clear -3 -19.4 -10 -23.3 71 71 W 10 17 30.42 1030 10 16 N/A
1:56 am 01:56 Clear -4 -20 -10 -23.3 75 75 WSW 7 11 30.43 1031 10 16 N/A
2:56 am 02:56 Clear -4 -20 -10 -23.3 75 75 SW 7 11 30.44 1031 10 16 N/A
3:56 am 03:56 Clear -5 -20.6 -10 -23.3 79 79 SW 6 9 30.44 1031 10 16 N/A
4:56 am 04:56 Clear -5 -20.6 -10 -23.3 79 79 SW 7 11 30.44 1031 10 16 N/A
5:56 am 05:56 Clear -6 -21.1 -10 -23.3 83 83 SW 5 7 30.45 1031 10 16 N/A
6:56 am 06:56 Clear -6 -21.1 -10 -23.3 83 83 SSW 5 7 30.46 1032 10 16 N/A
7:56 am 07:56 Sunny -6 -21.1 -10 -23.3 83 83 SW 6 9 30.48 1032 10 16 N/A
8:56 am 08:56 Sunny -3 -19.4 -8 -22.2 79 79 SW 7 11 30.49 1033 10 16 N/A
9:56 am 09:56 Sunny N/A -6 -21.1 76 76 W 8 13 30.49 1033 10 16 N/A
10:56 am 10:56 Sunny 2 -16.7 -7 -21.7 65 65 WSW 13 20 30.50 1033 10 16 N/A
11:56 am 11:56 Partly Cloudy 4 -15.6 -5 -20.6 66 66 W 12 19 30.50 1033 10 16 N/A
1:56 pm 13:56 Sunny 8 -13.3 -3 -19.4 60 60 WSW 9 15 30.47 1032 10 16 N/A
2:56 pm 14:56 Sunny 10 -12.2 -2 -18.9 58 58 SW 9 15 30.45 1031 10 16 N/A
3:56 pm 15:56 Sunny 8 -13.3 -2 -18.9 63 63 SSW 9 15 30.44 1031 10 16 N/A
4:56 pm 16:56 Partly Cloudy 9 -12.8 -2 -18.9 61 61 SSW 6 9 30.45 1031 10 16 N/A
5:56 pm 17:56 Cloudy 9 -12.8 -2 -18.9 61 61 SSW 5 7 30.44 1031 10 16 N/A
6:56 pm 18:56 Cloudy 9 -12.8 -2 -18.9 61 61 S 3 6 30.45 1031 10 16 N/A
7:56 pm 19:56 Cloudy 10 -12.2 1 -17.2 67 67 S 5 7 30.42 1030 10 16 N/A
8:56 pm 20:56 Cloudy with Light Snow 10 -12.2 5 -15 80 80 SSW 3 6 30.42 1030 3 4 N/A
9:18 pm 21:18 Cloudy with Light Snow 10 -12 7 -14 85 85 N N/A 30.44 1031 3 5 N/A
9:26 pm 21:26 Cloudy with Light Snow 10 -12 7 -14 85 85 N N/A 30.43 1030 3 4 N/A
9:42 pm 21:42 Cloudy with Light Snow 10 -12 7 -14 85 85 N N/A 30.43 1030 2 3 N/A
9:53 pm 21:53 Cloudy with Light Snow 10 -12 7 -14 85 85 N N/A 30.42 1030 1 2 N/A
9:56 pm 21:56 Cloudy with Light Snow 10 -12.2 7 -13.9 87 87 ESE 3 6 30.39 1029 1 2 N/A
10:05 pm 22:05 Cloudy with Light Snow 10 -12 7 -14 85 85 SE 5 7 30.41 1030 2 3 N/A
10:21 pm 22:21 Cloudy with Light Snow 10 -12 7 -14 85 85 SE 5 7 30.42 1030 2 2 N/A
10:29 pm 22:29 Cloudy with Light Snow 10 -12 9 -13 92 92 ESE 5 7 30.42 1030 1 2 N/A
10:42 pm 22:42 Cloudy with Light Snow 10 -12 9 -13 92 92 E 5 7 30.42 1030 1 2 0.02 0.51
10:53 pm 22:53 Cloudy with Light Snow 10 -12 9 -13 92 92 E 5 7 30.41 1030 1 2 0.02 0.51
10:56 pm 22:56 Cloudy with Light Snow 10 -12.2 8 -13.3 92 92 E 5 7 30.38 1029 1 2 0.02 0.51
11:05 pm 23:05 Cloudy with Light Snow 10 -12 9 -13 92 92 E 6 9 30.41 1030 1 2 N/A
11:12 pm 23:12 Cloudy with Light Snow 10 -12 9 -13 92 92 ESE 6 9 30.41 1030 1 2 N/A
11:43 pm 23:43 Cloudy with Light Snow 10 -12 9 -13 92 92 ESE 5 7 30.41 1030 1 2 N/A
11:56 pm 23:56 Cloudy with Light Snow 11 -11.7 9 -12.8 92 92 E 6 9 30.37 1028 1 1 N/A

Powered by AerisWeather